Year,Month,Day,Hour,Minute,Value (Times are PST for insolation in W/m^2)
2010,06,06,00,00,0.00
2010,06,06,00,01,0.00
2010,06,06,00,02,0.00
2010,06,06,00,03,0.00
2010,06,06,00,04,0.00
2010,06,06,00,05,0.00
2010,06,06,00,06,0.00
2010,06,06,00,07,0.00
2010,06,06,00,08,0.00
2010,06,06,00,09,0.00
2010,06,06,00,10,0.00
2010,06,06,00,11,0.00
2010,06,06,00,12,0.00
2010,06,06,00,13,0.00
2010,06,06,00,17,0.00
2010,06,06,00,18,0.00
2010,06,06,00,19,0.00
2010,06,06,00,20,0.00
2010,06,06,00,21,0.00
2010,06,06,00,22,0.00
2010,06,06,00,23,0.00
2010,06,06,00,24,0.00
2010,06,06,00,25,0.00
2010,06,06,00,26,0.00
2010,06,06,00,27,0.00
2010,06,06,00,28,0.00
2010,06,06,00,29,0.00
2010,06,06,00,30,0.00
2010,06,06,00,31,0.00
2010,06,06,00,32,0.00
2010,06,06,00,33,0.00
2010,06,06,00,34,0.00
2010,06,06,00,35,0.00
2010,06,06,00,36,0.00
2010,06,06,00,37,0.00
2010,06,06,00,38,0.00
2010,06,06,00,39,0.00
2010,06,06,00,40,0.00
2010,06,06,00,41,0.00
2010,06,06,00,42,0.00
2010,06,06,00,43,0.00
2010,06,06,00,44,0.00
2010,06,06,00,45,0.00
2010,06,06,00,46,0.00
2010,06,06,00,47,0.00
2010,06,06,00,48,0.00
2010,06,06,00,49,0.00
2010,06,06,00,50,0.00
2010,06,06,00,51,0.00
2010,06,06,00,52,0.00
2010,06,06,00,53,0.00
2010,06,06,00,54,0.00
2010,06,06,00,55,0.00
2010,06,06,00,56,0.00
2010,06,06,00,57,0.00
2010,06,06,00,58,0.00
2010,06,06,00,59,0.00
2010,06,06,01,00,0.00
2010,06,06,01,01,0.00
2010,06,06,01,02,0.00
2010,06,06,01,03,0.00
2010,06,06,01,04,0.00
2010,06,06,01,05,0.00
2010,06,06,01,06,0.00
2010,06,06,01,07,0.00
2010,06,06,01,08,0.00
2010,06,06,01,09,0.00
2010,06,06,01,10,0.00
2010,06,06,01,11,0.00
2010,06,06,01,12,0.00
2010,06,06,01,13,0.00
2010,06,06,01,14,0.00
2010,06,06,01,15,0.00
2010,06,06,01,16,0.00
2010,06,06,01,17,0.00
2010,06,06,01,18,0.00
2010,06,06,01,19,0.00
2010,06,06,01,20,0.00
2010,06,06,01,21,0.00
2010,06,06,01,22,0.00
2010,06,06,01,23,0.00
2010,06,06,01,24,0.00
2010,06,06,01,25,0.00
2010,06,06,01,26,0.00
2010,06,06,01,27,0.00
2010,06,06,01,28,0.00
2010,06,06,01,29,0.00
2010,06,06,01,30,0.00
2010,06,06,01,31,0.00
2010,06,06,01,32,0.00
2010,06,06,01,33,0.00
2010,06,06,01,34,0.00
2010,06,06,01,35,0.00
2010,06,06,01,36,0.00
2010,06,06,01,37,0.00
2010,06,06,01,38,0.00
2010,06,06,01,39,0.00
2010,06,06,01,40,0.00
2010,06,06,01,41,0.00
2010,06,06,01,42,0.00
2010,06,06,01,43,0.00
2010,06,06,01,44,0.00
2010,06,06,01,45,0.00
2010,06,06,01,46,0.00
2010,06,06,01,47,0.00
2010,06,06,01,48,0.00
2010,06,06,01,49,0.00
2010,06,06,01,50,0.00
2010,06,06,01,51,0.00
2010,06,06,01,52,0.00
2010,06,06,01,53,0.00
2010,06,06,01,54,0.00
2010,06,06,01,55,0.00
2010,06,06,01,56,0.00
2010,06,06,01,57,0.00
2010,06,06,01,58,0.00
2010,06,06,01,59,0.00
2010,06,06,02,00,0.00
2010,06,06,02,01,0.00
2010,06,06,02,02,0.00
2010,06,06,02,03,0.00
2010,06,06,02,04,0.00
2010,06,06,02,05,0.00
2010,06,06,02,06,0.00
2010,06,06,02,07,0.00
2010,06,06,02,08,0.00
2010,06,06,02,09,0.00
2010,06,06,02,10,0.00
2010,06,06,02,11,0.00
2010,06,06,02,12,0.00
2010,06,06,02,13,0.00
2010,06,06,02,14,0.00
2010,06,06,02,15,0.00
2010,06,06,02,16,0.00
2010,06,06,02,17,0.00
2010,06,06,02,18,0.00
2010,06,06,02,19,0.00
2010,06,06,02,20,0.00
2010,06,06,02,21,0.00
2010,06,06,02,22,0.00
2010,06,06,02,23,0.00
2010,06,06,02,24,0.00
2010,06,06,02,25,0.00
2010,06,06,02,26,0.00
2010,06,06,02,27,0.00
2010,06,06,02,28,0.00
2010,06,06,02,29,0.00
2010,06,06,02,30,0.00
2010,06,06,02,31,0.00
2010,06,06,02,32,0.00
2010,06,06,02,33,0.00
2010,06,06,02,34,0.00
2010,06,06,02,35,0.00
2010,06,06,02,36,0.00
2010,06,06,02,37,0.00
2010,06,06,02,38,0.00
2010,06,06,02,39,0.00
2010,06,06,02,40,0.00
2010,06,06,02,41,0.00
2010,06,06,02,42,0.00
2010,06,06,02,43,0.00
2010,06,06,02,44,0.00
2010,06,06,02,45,0.00
2010,06,06,02,46,0.00
2010,06,06,02,47,0.00
2010,06,06,02,48,0.00
2010,06,06,02,49,0.00
2010,06,06,02,50,0.00
2010,06,06,02,51,0.00
2010,06,06,02,52,0.00
2010,06,06,02,53,0.00
2010,06,06,02,54,0.00
2010,06,06,02,55,0.00
2010,06,06,02,56,0.00
2010,06,06,02,57,0.00
2010,06,06,02,58,0.00
2010,06,06,02,59,0.00
2010,06,06,03,00,0.00
2010,06,06,03,01,0.00
2010,06,06,03,02,0.00
2010,06,06,03,03,0.00
2010,06,06,03,04,0.00
2010,06,06,03,05,0.00
2010,06,06,03,06,0.00
2010,06,06,03,07,0.00
2010,06,06,03,08,0.00
2010,06,06,03,09,0.00
2010,06,06,03,10,0.00
2010,06,06,03,11,0.00
2010,06,06,03,12,0.00
2010,06,06,03,13,0.00
2010,06,06,03,14,0.00
2010,06,06,03,15,0.00
2010,06,06,03,16,0.00
2010,06,06,03,17,0.00
2010,06,06,03,18,0.00
2010,06,06,03,19,0.00
2010,06,06,03,20,0.00
2010,06,06,03,21,0.00
2010,06,06,03,22,0.00
2010,06,06,03,23,0.00
2010,06,06,03,24,0.00
2010,06,06,03,25,0.00
2010,06,06,03,26,0.00
2010,06,06,03,27,0.00
2010,06,06,03,28,0.00
2010,06,06,03,29,0.00
2010,06,06,03,30,0.00
2010,06,06,03,31,0.00
2010,06,06,03,32,0.00
2010,06,06,03,33,0.00
2010,06,06,03,34,0.00
2010,06,06,03,35,0.00
2010,06,06,03,36,0.00
2010,06,06,03,37,0.00
2010,06,06,03,38,0.00
2010,06,06,03,39,0.00
2010,06,06,03,40,0.00
2010,06,06,03,41,0.00
2010,06,06,03,42,0.00
2010,06,06,03,43,0.00
2010,06,06,03,44,0.00
2010,06,06,03,45,0.00
2010,06,06,03,46,0.00
2010,06,06,03,47,0.00
2010,06,06,03,48,0.00
2010,06,06,03,49,0.00
2010,06,06,03,50,0.00
2010,06,06,03,51,0.00
2010,06,06,03,52,0.00
2010,06,06,03,53,0.00
2010,06,06,03,54,0.00
2010,06,06,03,55,0.00
2010,06,06,03,56,0.00
2010,06,06,03,57,0.00
2010,06,06,03,58,0.00
2010,06,06,03,59,0.00
2010,06,06,04,00,0.00
2010,06,06,04,01,0.00
2010,06,06,04,02,0.00
2010,06,06,04,03,0.00
2010,06,06,04,04,0.00
2010,06,06,04,05,0.00
2010,06,06,04,06,0.00
2010,06,06,04,07,0.00
2010,06,06,04,08,0.00
2010,06,06,04,09,0.00
2010,06,06,04,10,0.00
2010,06,06,04,11,0.00
2010,06,06,04,12,0.00
2010,06,06,04,13,0.00
2010,06,06,04,14,0.00
2010,06,06,04,15,0.00
2010,06,06,04,16,0.00
2010,06,06,04,17,0.00
2010,06,06,04,18,0.00
2010,06,06,04,19,0.00
2010,06,06,04,20,0.00
2010,06,06,04,21,0.00
2010,06,06,04,22,0.00
2010,06,06,04,23,0.00
2010,06,06,04,24,0.00
2010,06,06,04,25,0.00
2010,06,06,04,26,0.00
2010,06,06,04,27,0.00
2010,06,06,04,28,0.00
2010,06,06,04,29,0.00
2010,06,06,04,30,0.00
2010,06,06,04,31,0.00
2010,06,06,04,32,0.00
2010,06,06,04,33,0.00
2010,06,06,04,34,0.00
2010,06,06,04,35,0.00
2010,06,06,04,36,0.00
2010,06,06,04,37,0.00
2010,06,06,04,38,0.00
2010,06,06,04,39,0.00
2010,06,06,04,40,0.00
2010,06,06,04,41,0.00
2010,06,06,04,42,0.00
2010,06,06,04,43,0.00
2010,06,06,04,44,0.00
2010,06,06,04,45,0.00
2010,06,06,04,46,0.00
2010,06,06,04,47,0.00
2010,06,06,04,48,0.00
2010,06,06,04,49,0.00
2010,06,06,04,50,0.00
2010,06,06,04,51,0.00
2010,06,06,04,52,0.00
2010,06,06,04,53,0.00
2010,06,06,04,54,0.00
2010,06,06,04,55,0.00
2010,06,06,04,56,0.00
2010,06,06,04,57,0.00
2010,06,06,04,58,0.00
2010,06,06,04,59,0.00
2010,06,06,05,00,0.00
2010,06,06,05,01,0.00
2010,06,06,05,02,0.00
2010,06,06,05,03,0.00
2010,06,06,05,04,0.00
2010,06,06,05,05,0.00
2010,06,06,05,06,0.00
2010,06,06,05,07,0.00
2010,06,06,05,08,0.00
2010,06,06,05,09,0.00
2010,06,06,05,10,0.00
2010,06,06,05,11,0.00
2010,06,06,05,12,0.00
2010,06,06,05,13,0.00
2010,06,06,05,14,0.00
2010,06,06,05,15,0.00
2010,06,06,05,16,0.00
2010,06,06,05,17,0.00
2010,06,06,05,18,0.00
2010,06,06,05,19,0.00
2010,06,06,05,20,0.00
2010,06,06,05,21,0.00
2010,06,06,05,22,0.00
2010,06,06,05,23,0.00
2010,06,06,05,24,0.00
2010,06,06,05,25,0.00
2010,06,06,05,26,0.00
2010,06,06,05,27,0.00
2010,06,06,05,28,0.00
2010,06,06,05,29,0.00
2010,06,06,05,30,0.00
2010,06,06,05,31,0.00
2010,06,06,05,32,0.00
2010,06,06,05,33,0.00
2010,06,06,05,34,0.00
2010,06,06,05,35,0.00
2010,06,06,05,36,0.00
2010,06,06,05,37,0.00
2010,06,06,05,38,0.00
2010,06,06,05,39,0.00
2010,06,06,05,40,0.00
2010,06,06,05,41,0.00
2010,06,06,05,42,0.00
2010,06,06,05,43,0.00
2010,06,06,05,44,0.00
2010,06,06,05,45,0.00
2010,06,06,05,46,0.00
2010,06,06,05,47,1.10
2010,06,06,05,48,5.00
2010,06,06,05,49,5.00
2010,06,06,05,50,5.00
2010,06,06,05,51,5.00
2010,06,06,05,52,5.00
2010,06,06,05,53,5.00
2010,06,06,05,54,5.00
2010,06,06,05,55,5.00
2010,06,06,05,56,5.00
2010,06,06,05,57,5.00
2010,06,06,05,58,5.00
2010,06,06,05,59,5.00
2010,06,06,06,00,5.00
2010,06,06,06,01,5.40
2010,06,06,06,02,7.00
2010,06,06,06,03,7.00
2010,06,06,06,04,7.00
2010,06,06,06,05,7.40
2010,06,06,06,06,9.00
2010,06,06,06,07,9.40
2010,06,06,06,08,11.00
2010,06,06,06,09,11.00
2010,06,06,06,10,11.00
2010,06,06,06,11,11.00
2010,06,06,06,12,11.00
2010,06,06,06,13,11.00
2010,06,06,06,14,11.00
2010,06,06,06,15,11.20
2010,06,06,06,16,12.00
2010,06,06,06,17,12.00
2010,06,06,06,18,12.00
2010,06,06,06,19,11.80
2010,06,06,06,20,11.20
2010,06,06,06,21,12.40
2010,06,06,06,22,14.40
2010,06,06,06,23,16.40
2010,06,06,06,24,18.00
2010,06,06,06,25,18.00
2010,06,06,06,26,18.00
2010,06,06,06,27,18.20
2010,06,06,06,28,19.00
2010,06,06,06,29,19.40
2010,06,06,06,30,21.40
2010,06,06,06,31,23.40
2010,06,06,06,32,25.20
2010,06,06,06,33,26.40
2010,06,06,06,34,28.40
2010,06,06,06,35,30.00
2010,06,06,06,36,30.00
2010,06,06,06,37,30.00
2010,06,06,06,38,30.00
2010,06,06,06,39,30.00
2010,06,06,06,40,30.40
2010,06,06,06,41,32.00
2010,06,06,06,42,32.00
2010,06,06,06,43,32.00
2010,06,06,06,44,32.20
2010,06,06,06,45,33.40
2010,06,06,06,46,35.00
2010,06,06,06,47,35.00
2010,06,06,06,48,35.00
2010,06,06,06,49,35.00
2010,06,06,06,50,35.00
2010,06,06,06,51,35.00
2010,06,06,06,52,35.00
2010,06,06,06,53,35.40
2010,06,06,06,54,37.40
2010,06,06,06,55,39.00
2010,06,06,06,56,39.20
2010,06,06,06,57,39.80
2010,06,06,06,58,39.00
2010,06,06,06,59,39.00
2010,06,06,07,00,39.20
2010,06,06,07,01,40.00
2010,06,06,07,02,40.00
2010,06,06,07,03,40.00
2010,06,06,07,04,40.00
2010,06,06,07,05,39.80
2010,06,06,07,06,39.00
2010,06,06,07,07,38.60
2010,06,06,07,08,36.60
2010,06,06,07,09,35.40
2010,06,06,07,10,37.00
2010,06,06,07,11,36.60
2010,06,06,07,12,35.40
2010,06,06,07,13,37.00
2010,06,06,07,14,37.40
2010,06,06,07,15,39.00
2010,06,06,07,16,39.00
2010,06,06,07,17,38.60
2010,06,06,07,18,37.00
2010,06,06,07,19,37.40
2010,06,06,07,20,39.00
2010,06,06,07,21,39.00
2010,06,06,07,22,39.00
2010,06,06,07,23,39.00
2010,06,06,07,24,39.20
2010,06,06,07,25,40.00
2010,06,06,07,26,40.00
2010,06,06,07,27,40.40
2010,06,06,07,28,42.00
2010,06,06,07,29,42.40
2010,06,06,07,30,44.40
2010,06,06,07,31,46.00
2010,06,06,07,32,46.20
2010,06,06,07,33,47.00
2010,06,06,07,34,47.40
2010,06,06,07,35,49.00
2010,06,06,07,36,49.00
2010,06,06,07,37,49.00
2010,06,06,07,38,49.00
2010,06,06,07,39,49.40
2010,06,06,07,40,51.40
2010,06,06,07,41,53.20
2010,06,06,07,42,54.40
2010,06,06,07,43,56.40
2010,06,06,07,44,58.40
2010,06,06,07,45,60.40
2010,06,06,07,46,62.20
2010,06,06,07,47,63.00
2010,06,06,07,48,63.40
2010,06,06,07,49,65.00
2010,06,06,07,50,65.00
2010,06,06,07,51,65.00
2010,06,06,07,52,65.40
2010,06,06,07,53,67.00
2010,06,06,07,54,67.40
2010,06,06,07,55,69.20
2010,06,06,07,56,70.00
2010,06,06,07,57,70.00
2010,06,06,07,58,70.00
2010,06,06,07,59,70.00
2010,06,06,08,00,69.80
2010,06,06,08,01,69.20
2010,06,06,08,02,70.00
2010,06,06,08,03,70.40
2010,06,06,08,04,72.40
2010,06,06,08,05,74.40
2010,06,06,08,06,76.60
2010,06,06,08,07,79.40
2010,06,06,08,08,81.00
2010,06,06,08,09,81.40
2010,06,06,08,10,83.60
2010,06,06,08,11,86.40
2010,06,06,08,12,88.00
2010,06,06,08,13,88.40
2010,06,06,08,14,90.00
2010,06,06,08,15,90.00
2010,06,06,08,16,90.00
2010,06,06,08,17,90.00
2010,06,06,08,18,90.20
2010,06,06,08,19,91.00
2010,06,06,08,20,91.40
2010,06,06,08,21,93.00
2010,06,06,08,22,93.00
2010,06,06,08,23,93.00
2010,06,06,08,24,92.60
2010,06,06,08,25,91.00
2010,06,06,08,26,91.00
2010,06,06,08,27,91.00
2010,06,06,08,28,90.80
2010,06,06,08,29,90.00
2010,06,06,08,30,89.60
2010,06,06,08,31,87.60
2010,06,06,08,32,86.00
2010,06,06,08,33,85.70
2010,06,06,08,34,84.00
2010,06,06,08,35,84.00
2010,06,06,08,36,84.00
2010,06,06,08,37,84.40
2010,06,06,08,38,86.00
2010,06,06,08,39,86.40
2010,06,06,08,40,88.40
2010,06,06,08,41,90.00
2010,06,06,08,42,90.00
2010,06,06,08,43,90.00
2010,06,06,08,44,90.20
2010,06,06,08,45,91.40
2010,06,06,08,46,93.40
2010,06,06,08,47,95.40
2010,06,06,08,48,97.60
2010,06,06,08,49,100.40
2010,06,06,08,50,102.00
2010,06,06,08,51,101.60
2010,06,06,08,52,99.60
2010,06,06,08,53,97.80
2010,06,06,08,54,97.00
2010,06,06,08,55,97.00
2010,06,06,08,56,97.00
2010,06,06,08,57,96.60
2010,06,06,08,58,94.60
2010,06,06,08,59,92.60
2010,06,06,09,00,91.00
2010,06,06,09,01,91.40
2010,06,06,09,02,93.40
2010,06,06,09,03,95.40
2010,06,06,09,04,97.00
2010,06,06,09,05,97.00
2010,06,06,09,06,97.00
2010,06,06,09,07,97.20
2010,06,06,09,08,98.40
2010,06,06,09,09,100.80
2010,06,06,09,10,104.60
2010,06,06,09,11,107.80
2010,06,06,09,12,111.60
2010,06,06,09,13,114.80
2010,06,06,09,14,119.10
2010,06,06,09,15,124.10
2010,06,06,09,16,129.30
2010,06,06,09,17,135.50
2010,06,06,09,18,142.10
2010,06,06,09,19,147.10
2010,06,06,09,20,151.80
2010,06,06,09,21,156.10
2010,06,06,09,22,161.90
2010,06,06,09,23,171.50
2010,06,06,09,24,182.90
2010,06,06,09,25,190.00
2010,06,06,09,26,188.90
2010,06,06,09,27,182.70
2010,06,06,09,28,172.10
2010,06,06,09,29,163.90
2010,06,06,09,30,159.20
2010,06,06,09,31,155.40
2010,06,06,09,32,152.20
2010,06,06,09,33,149.80
2010,06,06,09,34,155.50
2010,06,06,09,35,167.70
2010,06,06,09,36,179.50
2010,06,06,09,37,185.00
2010,06,06,09,38,186.50
2010,06,06,09,39,192.60
2010,06,06,09,40,196.10
2010,06,06,09,41,201.50
2010,06,06,09,42,208.50
2010,06,06,09,43,215.90
2010,06,06,09,44,223.80
2010,06,06,09,45,226.60
2010,06,06,09,46,223.50
2010,06,06,09,47,217.60
2010,06,06,09,48,216.00
2010,06,06,09,49,216.40
2010,06,06,09,50,219.50
2010,06,06,09,51,227.50
2010,06,06,09,52,239.70
2010,06,06,09,53,252.10
2010,06,06,09,54,260.80
2010,06,06,09,55,262.70
2010,06,06,09,56,255.90
2010,06,06,09,57,245.10
2010,06,06,09,58,231.30
2010,06,06,09,59,219.50
2010,06,06,10,00,214.00
2010,06,06,10,01,212.90
2010,06,06,10,02,208.60
2010,06,06,10,03,205.90
2010,06,06,10,04,199.50
2010,06,06,10,05,186.60
2010,06,06,10,06,171.10
2010,06,06,10,07,157.10
2010,06,06,10,08,144.10
2010,06,06,10,09,136.60
2010,06,06,10,10,135.40
2010,06,06,10,11,137.40
2010,06,06,10,12,139.40
2010,06,06,10,13,140.60
2010,06,06,10,14,139.00
2010,06,06,10,15,139.60
2010,06,06,10,16,143.90
2010,06,06,10,17,153.30
2010,06,06,10,18,163.50
2010,06,06,10,19,169.60
2010,06,06,10,20,171.80
2010,06,06,10,21,170.60
2010,06,06,10,22,167.70
2010,06,06,10,23,161.90
2010,06,06,10,24,154.60
2010,06,06,10,25,138.00
2010,06,06,10,26,119.20
2010,06,06,10,27,102.10
2010,06,06,10,28,89.30
2010,06,06,10,29,82.20
2010,06,06,10,30,79.00
2010,06,06,10,31,79.00
2010,06,06,10,32,79.40
2010,06,06,10,33,81.40
2010,06,06,10,34,83.60
2010,06,06,10,35,86.80
2010,06,06,10,36,90.60
2010,06,06,10,37,93.80
2010,06,06,10,38,97.60
2010,06,06,10,39,101.10
2010,06,06,10,40,106.30
2010,06,06,10,41,112.90
2010,06,06,10,42,121.70
2010,06,06,10,43,130.30
2010,06,06,10,44,140.50
2010,06,06,10,45,147.10
2010,06,06,10,46,151.40
2010,06,06,10,47,153.00
2010,06,06,10,48,152.60
2010,06,06,10,49,150.40
2010,06,06,10,50,147.20
2010,06,06,10,51,144.00
2010,06,06,10,52,143.60
2010,06,06,10,53,142.40
2010,06,06,10,54,144.80
2010,06,06,10,55,149.50
2010,06,06,10,56,156.70
2010,06,06,10,57,165.30
2010,06,06,10,58,176.50
2010,06,06,10,59,188.90
2010,06,06,11,00,201.50
2010,06,06,11,01,206.80
2010,06,06,11,02,204.70
2010,06,06,11,03,197.90
2010,06,06,11,04,187.70
2010,06,06,11,05,176.10
2010,06,06,11,06,162.90
2010,06,06,11,07,155.00
2010,06,06,11,08,152.30
2010,06,06,11,09,141.80
2010,06,06,11,10,139.70
2010,06,06,11,11,133.90
2010,06,06,11,12,129.40
2010,06,06,11,13,127.20
2010,06,06,11,14,128.80
2010,06,06,11,15,132.40
2010,06,06,11,16,134.20
2010,06,06,11,17,134.40
2010,06,06,11,18,130.90
2010,06,06,11,19,125.10
2010,06,06,11,20,116.10
2010,06,06,11,21,107.50
2010,06,06,11,22,100.90
2010,06,06,11,23,97.00
2010,06,06,11,24,97.20
2010,06,06,11,25,99.30
2010,06,06,11,26,104.60
2010,06,06,11,27,108.30
2010,06,06,11,28,114.10
2010,06,06,11,29,119.10
2010,06,06,11,30,124.10
2010,06,06,11,31,129.30
2010,06,06,11,32,134.20
2010,06,06,11,33,135.00
2010,06,06,11,34,134.40
2010,06,06,11,35,130.90
2010,06,06,11,36,126.20
2010,06,06,11,37,122.40
2010,06,06,11,38,120.20
2010,06,06,11,39,121.30
2010,06,06,11,40,123.60
2010,06,06,11,41,128.10
2010,06,06,11,42,133.50
2010,06,06,11,43,140.50
2010,06,06,11,44,147.10
2010,06,06,11,45,152.10
2010,06,06,11,46,157.30
2010,06,06,11,47,163.10
2010,06,06,11,48,167.80
2010,06,06,11,49,172.10
2010,06,06,11,50,177.10
2010,06,06,11,51,182.10
2010,06,06,11,52,186.80
2010,06,06,11,53,190.40
2010,06,06,11,54,192.00
2010,06,06,11,55,192.00
2010,06,06,11,56,192.20
2010,06,06,11,57,194.30
2010,06,06,11,58,200.10
2010,06,06,11,59,205.10
2010,06,06,12,00,209.80
2010,06,06,12,01,213.00
2010,06,06,12,02,211.70
2010,06,06,12,03,204.90
2010,06,06,12,04,194.50
2010,06,06,12,05,182.10
2010,06,06,12,06,168.30
2010,06,06,12,07,156.10
2010,06,06,12,08,148.40
2010,06,06,12,09,145.60
2010,06,06,12,10,144.00
2010,06,06,12,11,144.40
2010,06,06,12,12,147.50
2010,06,06,12,13,154.90
2010,06,06,12,14,163.90
2010,06,06,12,15,173.10
2010,06,06,12,16,182.50
2010,06,06,12,17,188.40
2010,06,06,12,18,188.50
2010,06,06,12,19,180.70
2010,06,06,12,20,169.90
2010,06,06,12,21,160.50
2010,06,06,12,22,154.60
2010,06,06,12,23,153.00
2010,06,06,12,24,153.40
2010,06,06,12,25,155.60
2010,06,06,12,26,158.80
2010,06,06,12,27,162.60
2010,06,06,12,28,165.40
2010,06,06,12,29,166.20
2010,06,06,12,30,161.50
2010,06,06,12,31,153.90
2010,06,06,12,32,143.10
2010,06,06,12,33,129.10
2010,06,06,12,34,115.30
2010,06,06,12,35,103.30
2010,06,06,12,36,95.50
2010,06,06,12,37,89.20
2010,06,06,12,38,85.60
2010,06,06,12,39,83.80
2010,06,06,12,40,82.60
2010,06,06,12,41,81.00
2010,06,06,12,42,81.40
2010,06,06,12,43,83.00
2010,06,06,12,44,83.00
2010,06,06,12,45,83.00
2010,06,06,12,46,83.00
2010,06,06,12,47,82.60
2010,06,06,12,48,81.00
2010,06,06,12,49,80.60
2010,06,06,12,50,78.60
2010,06,06,12,51,76.80
2010,06,06,12,52,75.60
2010,06,06,12,53,73.60
2010,06,06,12,54,71.60
2010,06,06,12,55,69.80
2010,06,06,12,56,69.20
2010,06,06,12,57,70.00
2010,06,06,12,58,70.00
2010,06,06,12,59,70.40
2010,06,06,13,00,72.40
2010,06,06,13,01,74.00
2010,06,06,13,02,74.60
2010,06,06,13,03,77.40
2010,06,06,13,04,79.40
2010,06,06,13,05,81.40
2010,06,06,13,06,83.20
2010,06,06,13,07,84.40
2010,06,06,13,08,86.40
2010,06,06,13,09,88.60
2010,06,06,13,10,91.70
2010,06,06,13,11,95.40
2010,06,06,13,12,97.20
2010,06,06,13,13,98.40
2010,06,06,13,14,100.00
2010,06,06,13,15,100.00
2010,06,06,13,16,100.00
2010,06,06,13,17,100.40
2010,06,06,13,18,102.40
2010,06,06,13,19,104.20
2010,06,06,13,20,105.30
2010,06,06,13,21,107.80
2010,06,06,13,22,112.10
2010,06,06,13,23,117.10
2010,06,06,13,24,122.50
2010,06,06,13,25,129.20
2010,06,06,13,26,136.30
2010,06,06,13,27,143.30
2010,06,06,13,28,148.20
2010,06,06,13,29,147.00
2010,06,06,13,30,134.70
2010,06,06,13,31,126.50
2010,06,06,13,32,136.30
2010,06,06,13,33,162.40
2010,06,06,13,34,183.00
2010,06,06,13,35,193.40
2010,06,06,13,36,194.60
2010,06,06,13,37,192.50
2010,06,06,13,38,189.20
2010,06,06,13,39,184.90
2010,06,06,13,40,179.60
2010,06,06,13,41,170.90
2010,06,06,13,42,166.10
2010,06,06,13,43,174.70
2010,06,06,13,44,194.40
2010,06,06,13,45,217.30
2010,06,06,13,46,249.00
2010,06,06,13,47,287.20
2010,06,06,13,48,324.30
2010,06,06,13,49,348.40
2010,06,06,13,50,347.10
2010,06,06,13,51,333.30
2010,06,06,13,52,321.30
2010,06,06,13,53,314.60
2010,06,06,13,54,312.60
2010,06,06,13,55,310.60
2010,06,06,13,56,311.30
2010,06,06,13,57,326.30
2010,06,06,13,58,350.50
2010,06,06,13,59,353.30
2010,06,06,14,00,353.90
2010,06,06,14,01,344.30
2010,06,06,14,02,317.50
2010,06,06,14,03,293.20
2010,06,06,14,04,276.10
2010,06,06,14,05,265.00
2010,06,06,14,06,266.90
2010,06,06,14,07,275.50
2010,06,06,14,08,282.90
2010,06,06,14,09,290.80
2010,06,06,14,10,294.60
2010,06,06,14,11,297.00
2010,06,06,14,12,295.60
2010,06,06,14,13,283.60
2010,06,06,14,14,260.40
2010,06,06,14,15,240.70
2010,06,06,14,16,230.90
2010,06,06,14,17,225.10
2010,06,06,14,18,216.30
2010,06,06,14,19,205.90
2010,06,06,14,20,199.00
2010,06,06,14,21,193.90
2010,06,06,14,22,188.90
2010,06,06,14,23,184.70
2010,06,06,14,24,182.60
2010,06,06,14,25,181.00
2010,06,06,14,26,180.60
2010,06,06,14,27,179.00
2010,06,06,14,28,179.30
2010,06,06,14,29,182.30
2010,06,06,14,30,189.50
2010,06,06,14,31,196.50
2010,06,06,14,32,203.10
2010,06,06,14,33,208.30
2010,06,06,14,34,214.10
2010,06,06,14,35,221.50
2010,06,06,14,36,232.90
2010,06,06,14,37,246.70
2010,06,06,14,38,259.50
2010,06,06,14,39,271.50
2010,06,06,14,40,283.30
2010,06,06,14,41,293.60
2010,06,06,14,42,303.50
2010,06,06,14,43,310.30
2010,06,06,14,44,316.00
2010,06,06,14,45,321.10
2010,06,06,14,46,326.90
2010,06,06,14,47,335.90
2010,06,06,14,48,346.00
2010,06,06,14,49,354.60
2010,06,06,14,50,388.50
2010,06,06,14,51,393.60
2010,06,06,14,52,389.50
2010,06,06,14,53,378.50
2010,06,06,14,54,374.10
2010,06,06,14,55,379.40
2010,06,06,14,56,384.20
2010,06,06,14,57,378.90
2010,06,06,14,58,370.40
2010,06,06,14,59,367.00
2010,06,06,15,00,368.10
2010,06,06,15,01,374.70
2010,06,06,15,02,382.00
2010,06,06,15,03,387.20
2010,06,06,15,04,388.00
2010,06,06,15,05,388.00
2010,06,06,15,06,387.90
2010,06,06,15,07,385.50
2010,06,06,15,08,378.70
2010,06,06,15,09,372.90
2010,06,06,15,10,366.20
2010,06,06,15,11,361.70
2010,06,06,15,12,360.00
2010,06,06,15,13,360.00
2010,06,06,15,14,360.40
2010,06,06,15,15,362.30
2010,06,06,15,16,364.50
2010,06,06,15,17,367.40
2010,06,06,15,18,369.00
2010,06,06,15,19,369.30
2010,06,06,15,20,372.40
2010,06,06,15,21,382.90
2010,06,06,15,22,403.40
2010,06,06,15,23,426.70
2010,06,06,15,24,456.70
2010,06,06,15,25,480.80
2010,06,06,15,26,487.30
2010,06,06,15,27,502.40
2010,06,06,15,28,517.30
2010,06,06,15,29,529.50
2010,06,06,15,30,545.70
2010,06,06,15,31,545.00
2010,06,06,15,32,577.20
2010,06,06,15,33,540.30
2010,06,06,15,34,589.80
2010,06,06,15,35,632.40
2010,06,06,15,36,675.00
2010,06,06,15,37,713.10
2010,06,06,15,38,856.00
2010,06,06,15,39,796.60
2010,06,06,15,40,483.00
2010,06,06,15,41,515.40
2010,06,06,15,42,569.40
2010,06,06,15,43,537.80
2010,06,06,15,44,572.50
2010,06,06,15,45,580.70
2010,06,06,15,46,609.60
2010,06,06,15,47,564.00
2010,06,06,15,48,564.00
2010,06,06,15,49,564.00
2010,06,06,15,50,569.60
2010,06,06,15,51,583.20
2010,06,06,15,52,541.60
2010,06,06,15,53,510.00
2010,06,06,15,54,526.00
2010,06,06,15,55,617.00
2010,06,06,15,56,617.00
2010,06,06,15,57,599.30
2010,06,06,15,58,527.60
2010,06,06,15,59,498.20
2010,06,06,16,00,498.70
2010,06,06,16,01,524.00
2010,06,06,16,02,546.10
2010,06,06,16,03,620.60
2010,06,06,16,04,588.70
2010,06,06,16,05,586.70
2010,06,06,16,06,589.40
2010,06,06,16,07,608.40
2010,06,06,16,08,605.40
2010,06,06,16,09,517.80
2010,06,06,16,10,488.70
2010,06,06,16,11,464.20
2010,06,06,16,12,434.20
2010,06,06,16,13,390.00
2010,06,06,16,14,378.60
2010,06,06,16,15,315.10
2010,06,06,16,16,303.50
2010,06,06,16,17,302.20
2010,06,06,16,18,315.10
2010,06,06,16,19,343.30
2010,06,06,16,20,359.80
2010,06,06,16,21,390.50
2010,06,06,16,22,411.20
2010,06,06,16,23,420.30
2010,06,06,16,24,433.50
2010,06,06,16,25,439.70
2010,06,06,16,26,445.90
2010,06,06,16,27,458.50
2010,06,06,16,28,465.70
2010,06,06,16,29,463.20
2010,06,06,16,30,457.90
2010,06,06,16,31,450.60
2010,06,06,16,32,441.90
2010,06,06,16,33,434.60
2010,06,06,16,34,425.40
2010,06,06,16,35,414.50
2010,06,06,16,36,401.50
2010,06,06,16,37,389.10
2010,06,06,16,38,376.90
2010,06,06,16,39,370.40
2010,06,06,16,40,367.00
2010,06,06,16,41,367.40
2010,06,06,16,42,370.50
2010,06,06,16,43,377.70
2010,06,06,16,44,388.90
2010,06,06,16,45,400.10
2010,06,06,16,46,406.80
2010,06,06,16,47,412.10
2010,06,06,16,48,419.70
2010,06,06,16,49,432.50
2010,06,06,16,50,463.70
2010,06,06,16,51,517.80
2010,06,06,16,52,484.50
2010,06,06,16,53,470.30
2010,06,06,16,54,442.20
2010,06,06,16,55,425.40
2010,06,06,16,56,419.20
2010,06,06,16,57,442.10
2010,06,06,16,58,488.80
2010,06,06,16,59,459.30
2010,06,06,17,00,447.50
2010,06,06,17,01,456.30
2010,06,06,17,02,427.20
2010,06,06,17,03,410.10
2010,06,06,17,04,396.60
2010,06,06,17,05,386.40
2010,06,06,17,06,383.80
2010,06,06,17,07,389.20
2010,06,06,17,08,395.70
2010,06,06,17,09,392.60
2010,06,06,17,10,382.70
2010,06,06,17,11,372.70
2010,06,06,17,12,365.70
2010,06,06,17,13,364.00
2010,06,06,17,14,363.70
2010,06,06,17,15,361.20
2010,06,06,17,16,355.60
2010,06,06,17,17,348.90
2010,06,06,17,18,343.80